Find Starlink 32009

NORAD ID: 60104 Int'l Des: 2024-117 Owner: SPXS Country: US Constellation: starlink operational
LEOCIRCULAR

当前视图

正在加载3D地球...

About Starlink 32009

Starlink 32009 (NORAD 60104) is a starlink constellation satellite (v2 mini) launched Jun 23, 2024 by SPXS of US. It operates in LEO, CIRCULAR orbit with a mass of 730.00 kg.

即将过境

Passes for default location (London). Set your location on the main map for personalized predictions.

高度历史

Loading altitude history...

两行轨道根数

1 60104U 24117P 26265.22746348 .00000234 00000-0 18072-4 0 9994
2 60104 53.1614 201.6235 0001408 80.8291 279.2871 15.34390338127019
Epoch: Sep 22, 2026 • Age: 6 hours

当前状态

高度 481.9 km
远地点 / 近地点 N/A
速度 7.62 km/s
星下点 -52.56°S, 73.45°W
发射日期 Jun 23, 2024
运行时间 2.2 years
类型 internet

技术详情

分类 Payload
质量 730.00 kg
干质量 700.00 kg
长度 0.30 m
跨度 29.00 m
形状 ? Box + pan
制造商 SPXS
平台类型 Starlink V2M
阶段状态 In Orbit
所有者/国家 SPXS/US

Most Searched